This demonstration page uses our WeatherBlox Daily Observations layout. Learn more.

Left ArrowRight Arrow

Hourly Observations for February 9, 2020

Temp ( °F °C ) Dew Point ( °F °C ) Humidity (%) Winds ( mph kmh ) Pressure ( in mb ) Visibility ( mi km ) Precip ( " mm )
12:56 am 00:56 Clear 33 0.6 29 -1.7 85 85 S 10 17 29.79 1009 10 16 0.00 0.00
1:56 am 01:56 Clear 32 0 29 -1.7 88 88 S 8 13 29.77 1008 10 16 0.00 0.00
2:56 am 02:56 Clear 32 0 29 -1.7 88 88 SSW 9 15 29.77 1008 10 16 0.00 0.00
3:56 am 03:56 Clear 31 -0.6 28 -2.2 89 89 WNW 8 13 29.80 1009 10 16 0.00 0.00
4:56 am 04:56 Clear 29 -1.7 26 -3.3 89 89 WNW 7 11 29.84 1010 10 16 0.00 0.00
5:56 am 05:56 Clear 33 0.6 29 -1.7 85 85 NNW 20 31 29.87 1012 10 16 0.00 0.00
6:16 am 06:16 Mostly Cloudy 34 1 28 -2 81 81 NNW 17 28 29.94 1014 10 16 0.00 0.00
6:56 am 06:56 Cloudy 32 0 26 -3.3 79 79 NNW 25 41 29.91 1013 10 16 0.00 0.00
7:56 am 07:56 Cloudy 30 -1.1 24 -4.4 79 79 N 24 39 29.97 1015 10 16 0.00 0.00
8:56 am 08:56 Cloudy 29 -1.7 23 -5 78 78 N 25 41 30.04 1017 10 16 0.00 0.00
9:56 am 09:56 Cloudy 29 -1.7 23 -5 78 78 N 31 50 30.09 1019 10 16 0.00 0.00
10:56 am 10:56 Cloudy 30 -1.1 23 -5 75 75 N 29 46 30.14 1021 10 16 0.00 0.00
11:56 am 11:56 Cloudy 34 1.1 22 -5.6 61 61 N 33 54 30.14 1021 10 16 0.00 0.00
12:56 pm 12:56 Cloudy 33 0.6 21 -6.1 61 61 N 28 44 30.17 1022 10 16 0.00 0.00
1:56 pm 13:56 Cloudy 32 0 20 -6.7 61 61 N 24 39 30.18 1022 10 16 0.00 0.00
2:54 pm 14:54 Partly Cloudy 32 0 19 -7 60 60 N 28 44 30.21 1023 10 16 0.00 0.00
2:56 pm 14:56 Partly Cloudy 32 0 19 -7.2 59 59 N 24 39 30.18 1022 10 16 0.00 0.00
3:22 pm 15:22 Mostly Cloudy 34 1 19 -7 56 56 N 24 39 30.21 1023 10 16 0.00 0.00
3:31 pm 15:31 Partly Cloudy 32 0 19 -7 60 60 N 22 35 30.22 1023 10 16 0.00 0.00
3:56 pm 15:56 Mostly Cloudy 33 0.6 19 -7.2 56 56 N 21 33 30.19 1022 10 16 0.00 0.00
4:56 pm 16:56 Mostly Sunny 32 0 19 -7.2 59 59 N 20 31 30.20 1023 10 16 0.00 0.00
5:56 pm 17:56 Sunny 28 -2.2 20 -6.7 72 72 N 14 22 30.21 1023 10 16 0.00 0.00
6:56 pm 18:56 Clear 27 -2.8 19 -7.2 72 72 NNW 3 6 30.25 1024 10 16 0.00 0.00
7:56 pm 19:56 Clear 26 -3.3 20 -6.7 78 78 Calm 30.25 1024 10 16 0.00 0.00
8:56 pm 20:56 Clear 25 -3.9 19 -7.2 78 78 SSW 3 6 30.25 1024 10 16 0.00 0.00
9:56 pm 21:56 Clear 24 -4.4 20 -6.7 84 84 W 3 6 30.24 1024 10 16 0.00 0.00
10:56 pm 22:56 Clear 23 -5 19 -7.2 85 85 SW 3 6 30.22 1023 10 16 0.00 0.00
11:56 pm 23:56 Mostly Clear 24 -4.4 20 -6.7 84 84 WSW 5 7 30.22 1023 10 16 0.00 0.00

Powered by AerisWeather